Content
SEND FEEDBACK

Daily
Averages
Monthly
Summary
Philippines

BOOT, PHILIPPINES


Home > Asia > Philippines
Elevation: 36 feet     Latitude: 14 04N     Longitude: 121 03E

WEATHER
 
SELECT A DAY
Number of Records: 178,098;   Date Range: 7/1/96 - 11/24/14
 
SHARE

PRINT THIS DATA

[ ← Previous Day ]
WEATHER ALMANAC - MAY 4, 2013
[ Next Day → ]
[ °C ]   °F
Weather ElementAverageHighLow
Temperature87.1 °F96 °F (2:00 pm)82 °F (2:00 am)
Dewpoint76.5 °F79 °F (2:00 am)73 °F (5:00 pm)
Humidity70.1 %89 % (1:00 am)41 % (2:00 pm)
Barometer29.84 in29.91 in (11:00 pm)29.77 in (2:00 pm)
Wind Speed5.9 mph16.1 mph (3:00 pm)
Weather ElementAverage
Visibility6 mi
Wind DirectionSSE (160.6 °)

Weather ElementTotal
Precipitation---
Cooling Degree Days24 (Base 65)
Growing Degree Days39 (Base 50)
Averaged from 31 records on May 4, 2013
WEATHER CONDITIONS BREAKOUT
WIND DIRECTION BREAKOUT
WEATHER BY HOUR - MAY 4, 2013
[ °C ]   °F
Local TimeTemperatureDewpointHumidityBarometerVisibilityWind DirectionWind SpeedGust SpeedPrecipitationEventsConditions
1:00 AM82.4 °F78.8 °F89 %29.80 in5.6 miNorth (700°)2.3 mphPartly Cloudy
2:00 AM82.0 °F79.0 °F88 %29.82 in6.0 miWSW (250°)2.2 mphHaze
2:00 AM82.4 °F78.8 °F89 %29.80 in5.6 miWSW (250°)1.2 mphPartly Cloudy
3:00 AM82.4 °F78.8 °F89 %29.80 in5.6 miVariable2.3 mphPartly Cloudy
4:00 AM82.4 °F78.8 °F89 %29.80 in5.6 miVariable2.3 mphScattered Clouds
5:00 AM82.0 °F79.0 °F89 %29.83 in6.0 miSSW (210°)2.2 mphHaze
5:00 AM82.4 °F78.8 °F89 %29.83 in5.6 miVariable2.3 mphScattered Clouds
6:00 AM84.2 °F78.8 °F84 %29.86 in5.6 miVariable1.2 mphScattered Clouds
7:00 AM84.2 °F78.8 °F84 %29.86 in5.6 miVariable1.2 mphScattered Clouds
8:00 AM86.0 °F79.0 °F74 %29.88 in6.0 miWSW (240°)4.5 mphHaze
8:00 AM86.0 °F78.8 °F79 %29.86 in6.2 miWSW (250°)4.6 mphScattered Clouds
9:00 AM86.0 °F78.8 °F79 %29.89 in6.2 miWest (270°)5.8 mphMostly Cloudy
10:00 AM87.8 °F77.0 °F70 %29.89 in6.2 miWest (260°)9.2 mphScattered Clouds
11:00 AM90.0 °F76.0 °F55 %29.89 in6.0 miWest (280°)6.7 mphHaze
11:00 AM86.0 °F77.0 °F74 %29.86 in6.2 miWest (280°)8.1 mphScattered Clouds
12:00 PM93.2 °F78.8 °F63 %29.86 in6.2 miWest (280°)9.2 mphPartly Cloudy
1:00 PM91.4 °F75.2 °F59 %29.83 in6.2 miWest (260°)8.1 mphPartly Cloudy
2:00 PM96.0 °F75.0 °F41 %29.80 in6.0 miSE (130°)8.9 mphHaze
2:00 PM95.0 °F75.2 °F53 %29.77 in6.2 miSE (130°)8.1 mphPartly Cloudy
3:00 PM95.0 °F73.4 °F49 %29.80 in6.2 miENE (70°)16.1 mphScattered Clouds
4:00 PM89.6 °F73.4 °F59 %29.80 in6.2 miNE (40°)8.1 mphScattered Clouds
5:00 PM90.0 °F73.0 °F48 %29.80 in6.0 miEast (90°)6.7 mphHaze
5:00 PM89.6 °F73.4 °F59 %29.80 in6.2 miEast (90°)6.9 mphMostly Cloudy
6:00 PM89.6 °F73.4 °F59 %29.80 in6.2 miESE (110°)9.2 mphMostly Cloudy
7:00 PM87.8 °F75.2 °F66 %29.83 in6.2 miESE (110°)6.9 mphScattered Clouds
8:00 PM87.0 °F76.0 °F63 %29.86 in6.0 miESE (120°)6.7 mphHaze
8:00 PM87.8 °F75.2 °F66 %29.86 in6.2 miESE (120°)6.9 mphPartly Cloudy
9:00 PM86.0 °F75.2 °F70 %29.89 in6.2 miESE (110°)8.1 mphPartly Cloudy
10:00 PM86.0 °F75.2 °F70 %29.89 in6.2 miESE (110°)6.9 mphPartly Cloudy
11:00 PM85.0 °F74.0 °F62 %29.91 in6.0 miESE (110°)4.5 mphHaze
11:00 PM86.0 °F73.4 °F66 %29.89 in6.2 miESE (110°)4.6 mphPartly Cloudy
Hourly data recorded from RPLL, located miles away from Boot, Philippines







STORIES FROM OUR PARTNERS